Location: Palomar Mountain Lodge
(33.3110°N, 116.8495°W)
Time: 13:12:30
(UTC-08:00)

Cosmos 1633 Rocket - Pass Details

Date: 12 July 2018
Orbit: 606 x 625 km, 82.5° (Epoch: 08 December)

Event Time Altitude Azimuth Distance (km) Brightness Sun altitude
Exits shadow 22:50:22 49° 7° (N) 806 3.8 -27.6°
Drops below altitude 10° 22:53:37 10° 7° (N) 1,993 6.3 -27.9°
Sets 22:55:51 0° 7° (N) 2,901 7.2 -28.2°
